Wind_Speed
17 17 15 14 14 14 14 13 13 10 10 12 16 19 22 24 27 30 32 34 36 38 40 42 45 48 49 46 42 41 31 26 23 20 26 34 39 45 53 64 75 76 76
15 14 14 15 16 15 14 13 10 8 9 13 16 19 21 23 26 30 33 34 37 39 40 41 43 45 46 44 40 32 26 27 24 21 21 25 30 35 30 34 36 68 67
15 15 17 16 14 14 14 13 10 11 14 17 19 21 22 25 28 30 33 35 37 39 40 41 41 44 45 42 39 32 25 24 26 24 16 15 21 26 27 36 43 54 59
16 16 15 15 16 17 16 14 12 15 17 18 21 23 25 28 30 32 34 35 36 38 40 42 41 40 42 43 38 34 26 21 21 18 19 14 17 24 16 25 28 25 44
18 17 19 20 21 18 16 14 14 16 18 19 21 23 25 28 30 33 35 37 37 37 39 40 41 39 39 39 38 34 29 25 25 24 10 4 9 12 19 18 29 29 32
21 21 22 23 21 19 18 16 15 17 19 21 24 26 28 30 31 33 35 36 37 38 38 38 39 39 37 36 36 34 31 27 21 17 10 8 8 9 16 22 24 30 37
24 23 23 24 23 21 20 20 20 21 22 24 26 28 30 32 33 34 35 36 37 38 38 37 37 37 36 33 32 33 31 27 23 16 12 15 16 13 14 17 19 24 31
28 26 26 27 26 25 24 24 25 26 26 28 29 30 32 35 37 39 40 39 38 38 38 38 35 35 35 32 29 28 28 26 24 17 13 14 22 27 27 23 23 24 30
32 32 31 31 31 30 29 29 30 31 32 33 34 35 36 37 39 42 43 44 43 41 39 38 37 34 34 33 29 25 25 24 23 20 15 15 18 21 22 23 21 23 28
37 37 36 36 36 36 36 36 37 37 39 39 41 42 42 44 44 45 45 45 45 45 42 41 39 36 34 33 32 30 25 22 20 19 17 17 19 21 23 23 24 21 20
42 42 42 42 41 41 42 44 45 45 45 46 47 48 47 47 49 49 48 46 46 46 45 42 40 38 37 33 32 32 30 28 24 21 19 16 16 19 20 25 25 25 24
47 47 47 48 48 48 48 49 50 51 50 51 51 51 52 52 52 52 50 48 46 46 46 44 42 41 39 36 33 32 32 31 30 27 24 22 21 19 17 18 20 23 28
49 49 51 52 52 52 52 52 53 54 53 54 54 54 54 55 54 50 50 50 48 47 46 45 44 43 42 39 38 39 35 33 34 33 33 30 26 25 25 24 22 21 20
50 51 51 52 53 54 54 54 54 54 53 50 48 48 48 48 49 50 48 47 48 48 49 46 45 45 45 42 40 38 36 37 37 37 37 37 37 35 30 29 29 29 28
42 44 45 47 48 48 48 47 46 46 46 43 43 42 42 41 42 43 44 45 45 45 46 47 47 48 48 46 45 43 42 42 39 38 40 43 41 40 40 38 35 32 32
27 31 34 36 36 36 37 39 38 39 40 40 41 41 42 41 41 41 41 42 43 46 46 46 47 48 49 49 48 49 51 51 49 47 45 45 44 44 43 43 43 43 41
29 30 30 31 32 33 35 37 39 41 41 40 39 40 40 41 42 42 42 41 41 42 44 47 50 51 52 52 52 51 53 55 54 54 53 52 50 50 48 45 44 44 47
35 35 35 36 38 39 40 41 41 42 43 45 44 43 43 44 44 43 43 43 43 43 42 42 45 48 50 51 51 51 52 52 53 52 51 51 51 50 51 51 50 51 53
41 41 41 42 43 43 44 45 45 46 46 47 46 47 48 48 49 48 47 45 44 44 45 45 46 46 47 47 47 48 48 48 49 49 49 50 51 51 52 53 53 51 50
43 44 45 46 47 48 48 49 50 50 51 51 51 51 51 50 50 50 49 47 47 45 45 44 45 45 46 46 44 43 43 43 43 43 43 43 44 44 44 44 45 46 47
46 46 46 47 47 48 49 49 50 50 51 51 51 51 51 51 50 50 51 49 49 48 47 46 46 46 46 45 45 45 45 45 45 44 44 44 44 44 45 45 46 48 49
44 44 44 44 45 45 46 47 47 47 48 48 48 48 48 47 47 48 48 48 48 49 49 50 49 49 49 49 49 49 49 49 50 50 49 49 50 50 51 51 52 54 56
44 43 44 44 45 45 46 46 46 46 46 46 46 46 45 45 45 45 45 46 47 48 48 49 50 51 51 52 53 53 53 54 54 55 55 55 55 56 56 57 59 60 61
45 45 46 46 47 47 47 47 47 47 47 48 48 48 48 48 48 48 48 48 48 48 49 50 50 51 52 52 53 55 56 57 56 57 57 57 58 59 60 60 61 62 62
46 47 48 48 49 49 50 49 50 50 50 51 51 51 52 52 53 53 53 54 54 54 55 55 55 55 56 57 57 57 57 58 58 58 58 59 59 58 57 57 56 54 50
49 49 49 50 51 51 52 52 53 54 55 55 56 56 56 56 57 57 57 57 58 59 60 60 61 61 61 60 60 60 61 61 60 58 56 54 52 49 45 44 42 40 36
Wind_Direction
213 210 218 227 238 244 252 254 257 271 297 313 310 311 314 317 320 321 323 326 328 329 331 332 332 332 334 333 326 324 331 331 325 293 273 257 246 234 236 237 238 240 241
206 217 228 239 245 249 248 256 262 288 310 310 310 314 316 319 321 323 323 327 330 332 335 337 337 336 339 340 337 328 326 329 334 334 275 258 244 230 226 232 246 238 239
223 234 244 245 244 245 251 259 273 292 304 305 307 312 313 318 320 322 326 327 329 330 334 338 340 341 342 343 344 338 327 316 316 327 325 274 235 223 221 238 243 241 236
235 237 238 241 241 248 252 256 273 293 296 299 301 304 307 308 309 315 320 324 328 329 333 336 339 344 344 347 348 346 331 313 315 325 327 276 212 175 226 227 227 252 244
233 239 243 242 244 245 250 260 274 286 291 295 300 305 309 311 314 314 314 315 318 327 333 333 336 341 347 347 349 351 345 329 314 329 299 125 191 262 238 247 248 255 245
246 243 240 240 240 246 252 261 272 280 289 296 301 307 308 311 312 312 315 316 318 320 323 330 332 336 341 347 348 352 349 348 330 326 241 272 268 246 250 246 249 237 247
244 240 239 242 247 253 260 268 276 282 289 295 299 303 306 309 311 312 312 314 317 317 318 320 326 332 334 340 346 348 352 347 341 321 300 250 250 289 290 275 268 254 237
242 243 245 250 254 260 266 273 279 284 289 293 298 302 303 306 309 312 314 314 314 316 314 315 319 321 328 331 335 341 348 349 350 330 304 265 261 271 283 276 263 264 263
246 247 250 255 260 264 270 275 280 285 289 292 295 297 300 302 304 306 307 309 311 312 313 311 311 314 317 320 328 331 333 339 344 344 319 291 279 278 279 279 272 268 267
250 252 253 257 263 269 273 278 282 285 289 291 294 295 297 298 300 302 303 302 303 305 308 309 308 308 309 311 314 319 324 323 324 331 330 317 293 281 276 276 273 273 258
255 258 260 263 265 269 274 279 282 285 288 291 292 293 295 296 299 300 299 297 297 298 300 304 305 304 303 303 305 307 310 315 316 308 309 310 304 294 287 278 270 264 255
260 263 265 267 270 272 275 278 281 284 286 288 290 292 294 294 295 295 294 294 294 293 295 297 299 299 299 299 298 298 298 301 301 302 300 292 292 293 288 281 279 276 263
263 265 266 269 272 274 277 280 282 284 285 288 289 290 291 291 291 290 290 290 291 291 291 292 292 292 293 294 297 295 290 288 289 291 292 292 289 276 278 279 277 277 274
267 269 270 272 274 276 278 281 283 286 287 290 292 292 290 288 289 288 289 289 288 288 288 289 289 288 288 290 293 295 296 294 291 286 286 285 286 286 285 278 272 272 269
271 272 273 275 276 278 280 282 283 285 287 289 290 291 293 295 294 294 292 290 288 288 288 286 284 283 284 285 285 288 289 289 287 290 290 285 282 280 281 280 279 276 272
271 274 275 274 275 277 280 282 283 284 285 287 289 290 292 294 296 298 299 296 293 289 287 286 285 286 286 286 285 283 284 284 286 286 288 285 279 278 278 277 277 275 275
283 277 279 279 280 280 281 282 283 286 287 286 288 290 291 292 292 293 295 296 298 295 291 288 287 286 285 284 285 285 284 284 284 285 285 283 281 277 269 267 270 274 276
276 275 277 279 280 281 282 283 284 286 287 288 288 290 292 293 292 292 293 292 291 292 293 292 289 287 287 286 286 285 284 283 283 283 282 281 280 276 274 273 271 275 273
278 277 278 277 278 278 280 281 282 284 286 288 289 290 291 291 291 291 290 291 291 292 292 290 289 290 289 288 288 286 284 282 281 280 279 277 276 276 276 277 278 277 275
281 281 281 281 282 281 282 283 284 285 287 287 287 288 288 287 287 288 289 289 289 290 290 289 290 289 289 288 288 288 287 287 285 283 281 279 278 276 276 276 276 276 276
285 285 285 284 284 284 285 285 286 286 287 287 287 287 288 288 288 288 289 288 288 289 290 289 288 288 287 287 287 287 288 287 286 284 282 280 279 278 277 277 276 276 276
284 284 284 284 285 286 287 288 288 288 288 288 288 289 289 289 289 289 289 289 290 290 291 291 289 287 287 286 286 285 285 285 284 284 283 282 282 281 280 279 278 278 278
284 284 285 286 286 287 288 288 288 288 289 289 289 289 290 290 290 291 291 291 292 292 292 292 292 292 291 289 288 287 286 285 284 284 284 283 283 283 283 282 282 281 281
284 285 285 285 285 285 285 286 286 286 287 287 287 287 288 289 290 291 292 292 292 292 292 292 292 292 292 292 292 290 288 288 287 286 286 285 284 284 284 284 284 283 283
286 285 285 286 286 286 285 285 284 285 285 285 286 287 288 289 289 290 290 291 292 292 292 293 292 292 293 292 291 290 289 288 288 287 286 286 285 284 283 283 282 282 282
287 287 286 286 286 287 286 286 286 286 285 285 285 286 287 287 288 289 290 290 291 291 291 291 292 292 292 291 291 290 288 287 287 287 285 284 284 283 282 282 281 279 277
Height
5587 5589 5592 5593 5595 5596 5597 5597 5597 5596 5594 5592 5592 5590 5587 5584 5581 5576 5570 5564 5556 5547 5538 5527 5513 5500 5485 5468 5454 5442 5430 5422 5418 5415 5412 5410 5415 5421 5435 5442 5453 5464 5474
5585 5587 5589 5590 5591 5592 5592 5592 5591 5590 5588 5587 5586 5583 5580 5577 5573 5568 5562 5556 5548 5539 5530 5520 5508 5494 5480 5465 5451 5440 5433 5425 5417 5412 5406 5405 5409 5415 5428 5437 5442 5446 5458
5583 5584 5585 5586 5586 5587 5588 5587 5586 5584 5583 5581 5579 5577 5573 5570 5565 5561 5554 5547 5540 5533 5524 5513 5503 5490 5477 5463 5451 5440 5432 5425 5417 5412 5407 5405 5406 5413 5421 5427 5432 5438 5445
5579 5580 5581 5581 5583 5583 5582 5581 5579 5578 5577 5575 5572 5569 5566 5562 5558 5552 5546 5540 5534 5526 5517 5508 5498 5487 5475 5463 5451 5441 5432 5425 5420 5415 5411 5408 5408 5413 5420 5422 5427 5431 5438
5575 5576 5577 5577 5577 5576 5576 5575 5573 5572 5570 5568 5566 5562 5558 5554 5549 5544 5539 5533 5526 5519 5511 5504 5494 5485 5474 5462 5452 5443 5434 5426 5421 5417 5415 5413 5414 5416 5418 5420 5423 5428 5432
5570 5570 5571 5571 5570 5570 5569 5568 5566 5565 5563 5561 5558 5554 5551 5546 5542 5537 5531 5525 5518 5511 5504 5498 5490 5482 5472 5462 5452 5444 5435 5428 5422 5420 5418 5417 5416 5416 5416 5416 5417 5420 5426
5564 5564 5565 5565 5564 5563 5562 5561 5559 5557 5555 5553 5550 5546 5543 5538 5534 5529 5523 5518 5511 5504 5498 5491 5485 5478 5470 5461 5453 5444 5436 5430 5424 5420 5418 5417 5416 5414 5414 5414 5415 5416 5417
5558 5558 5558 5558 5557 5556 5554 5553 5551 5549 5546 5545 5541 5537 5534 5529 5525 5520 5514 5509 5503 5497 5491 5485 5480 5473 5467 5460 5452 5445 5438 5431 5425 5420 5418 5417 5416 5414 5413 5412 5412 5413 5415
5550 5550 5550 5549 5548 5548 5546 5545 5543 5541 5538 5535 5532 5529 5525 5520 5516 5511 5505 5500 5494 5488 5483 5478 5473 5467 5461 5456 5451 5444 5438 5432 5427 5422 5417 5415 5413 5411 5410 5409 5409 5410 5411
5541 5541 5540 5540 5539 5538 5536 5535 5533 5531 5528 5525 5522 5519 5515 5510 5506 5501 5496 5491 5485 5480 5475 5469 5464 5460 5455 5450 5444 5440 5435 5431 5426 5421 5417 5413 5410 5408 5406 5405 5405 5406 5406
5531 5530 5530 5529 5529 5528 5526 5523 5521 5519 5517 5513 5510 5507 5503 5499 5494 5490 5485 5480 5475 5470 5465 5460 5456 5452 5447 5443 5438 5433 5429 5426 5423 5418 5415 5411 5407 5404 5402 5401 5400 5400 5400
5519 5519 5518 5517 5516 5515 5514 5511 5508 5506 5504 5501 5498 5494 5489 5486 5482 5477 5472 5468 5464 5459 5454 5450 5446 5442 5438 5435 5431 5426 5422 5418 5415 5412 5409 5406 5402 5400 5397 5395 5394 5392 5393
5507 5506 5505 5504 5502 5501 5500 5498 5495 5492 5490 5487 5484 5480 5475 5471 5467 5463 5459 5455 5451 5447 5443 5439 5435 5431 5427 5424 5422 5418 5414 5411 5407 5404 5401 5399 5396 5394 5391 5389 5387 5385 5385
5493 5492 5491 5490 5488 5486 5485 5483 5480 5477 5474 5471 5468 5465 5461 5456 5451 5448 5445 5441 5437 5434 5430 5427 5423 5419 5416 5413 5410 5407 5405 5401 5397 5395 5392 5389 5387 5386 5384 5382 5380 5378 5376
5479 5478 5477 5476 5474 5472 5470 5468 5466 5463 5460 5457 5454 5451 5447 5443 5438 5434 5431 5427 5424 5420 5417 5414 5410 5406 5403 5400 5398 5395 5392 5390 5388 5385 5382 5379 5377 5375 5373 5372 5371 5370 5369
5467 5466 5464 5463 5462 5461 5459 5455 5453 5451 5448 5445 5442 5438 5434 5431 5426 5421 5417 5413 5409 5406 5403 5400 5396 5393 5390 5387 5384 5381 5378 5376 5374 5372 5369 5367 5365 5363 5361 5359 5358 5357 5356
5459 5456 5455 5453 5451 5449 5447 5445 5441 5438 5436 5433 5429 5425 5421 5418 5414 5409 5405 5401 5396 5392 5389 5385 5382 5378 5375 5372 5369 5367 5363 5360 5358 5356 5354 5351 5350 5348 5346 5344 5343 5342 5341
5448 5447 5445 5442 5440 5437 5436 5433 5430 5427 5422 5418 5415 5412 5408 5404 5400 5396 5392 5387 5383 5379 5376 5372 5368 5364 5360 5357 5354 5350 5347 5344 5341 5339 5336 5334 5332 5331 5330 5330 5329 5327 5325
5436 5434 5432 5430 5428 5425 5422 5419 5416 5412 5409 5405 5401 5398 5394 5390 5387 5382 5378 5374 5369 5365 5361 5358 5354 5350 5346 5342 5338 5335 5331 5328 5325 5322 5320 5317 5315 5314 5312 5312 5310 5308 5306
5423 5421 5419 5416 5413 5411 5408 5404 5401 5397 5394 5390 5387 5383 5379 5376 5371 5367 5363 5359 5355 5351 5347 5343 5339 5336 5332 5328 5324 5320 5317 5314 5311 5309 5306 5304 5301 5299 5297 5295 5294 5291 5290
5408 5406 5403 5401 5398 5395 5392 5388 5385 5382 5378 5374 5370 5367 5363 5359 5355 5351 5347 5343 5339 5335 5331 5327 5324 5321 5317 5314 5311 5307 5304 5301 5299 5296 5294 5291 5289 5287 5284 5282 5280 5277 5275
5394 5391 5389 5386 5383 5380 5376 5373 5369 5365 5361 5358 5354 5350 5346 5342 5339 5335 5331 5326 5322 5318 5315 5311 5308 5305 5302 5299 5296 5293 5290 5287 5284 5281 5279 5276 5274 5272 5269 5267 5264 5262 5259
5380 5377 5374 5371 5368 5365 5362 5358 5354 5350 5347 5343 5339 5335 5331 5327 5323 5319 5314 5310 5306 5302 5299 5295 5292 5288 5285 5281 5278 5276 5273 5270 5266 5263 5261 5258 5256 5253 5250 5248 5245 5242 5239
5365 5362 5359 5356 5353 5350 5346 5343 5339 5336 5332 5328 5324 5320 5316 5312 5308 5303 5299 5295 5291 5287 5283 5280 5276 5272 5268 5265 5261 5257 5254 5251 5248 5245 5242 5240 5237 5234 5231 5228 5224 5221 5217
5351 5347 5344 5341 5337 5334 5330 5327 5323 5320 5316 5312 5307 5303 5299 5295 5291 5286 5282 5278 5274 5269 5265 5262 5258 5254 5250 5246 5242 5239 5235 5231 5228 5226 5223 5220 5217 5214 5210 5207 5204 5201 5198
5335 5332 5329 5325 5321 5318 5314 5310 5305 5301 5297 5293 5289 5285 5281 5277 5272 5267 5263 5258 5254 5249 5244 5240 5237 5234 5230 5225 5221 5218 5214 5211 5208 5206 5202 5199 5197 5195 5192 5190 5188 5186 5185